Home   Weather   Dublin   Past weeks
Flag for Ireland

Past Weather in Dublin, Ireland — Yesterday and Last 2 Weeks

Now
63 °F

Partly cloudy.


Feels Like: 63 °F
Forecast: 68 / 59 °F
Wind: 9 mph from South

Location: Dublin Airport

Current Time: Jul 20, 2019 at 12:09:19 am

Latest Report: Jul 19, 2019 at 11:00 pm


Visibility: N/A

Pressure: 29.47 "Hg

Humidity: 83%

Dew Point: 57 °F

Location of DublinLocation

Past Weather in Dublin — Graph

°F

Dublin Temperature Yesterday

Maximum temperature yesterday: 72 °F (at 5:00 pm)
Minimum temperature yesterday: 55 °F (at 6:00 am)
Average temperature yesterday: 62 °F

High & Low Weather Summary for the Past Weeks

 TemperatureHumidityPressure
High73 °F (Jul 15, 5:00 pm)100% (Jul 6, 2:30 pm)30.30 "Hg (Jul 6, 2:30 pm)
Low46 °F (Jul 8, 2:00 am)50% (Jul 15, 5:00 pm)29.47 "Hg (Jul 19, 11:00 pm)
Average60 °F79%30.03 "Hg
* Reported Jul 4 11:00 pm — Jul 19 11:00 pm, Dublin. Weather by CustomWeather, © 2019

Note: Actual official high and low records may vary slightly from our data, if they occured in-between our weather recording intervals... More about our weather records

Advertising

Dublin Weather History for the Previous 24 Hours

Scroll right to see more
 ConditionsComfort  
Time TempWeatherWind HumidityBarometerVisibility
11:00 pm
Fri, Jul 19
63 °FPartly cloudy.9 mph83%29.47 "HgN/A
10:30 pm63 °FPartly cloudy.7 mph83%29.50 "HgN/A
10:00 pm64 °FPartly cloudy.9 mph78%29.50 "HgN/A
9:30 pm64 °FBroken clouds.14 mph78%29.50 "HgN/A
9:00 pm64 °FBroken clouds.14 mph78%29.50 "HgN/A
8:30 pm66 °FBroken clouds.13 mph78%29.50 "HgN/A
8:00 pm66 °FPartly sunny.13 mph78%29.50 "HgN/A
7:30 pm66 °FPartly sunny.13 mph78%29.50 "HgN/A
7:00 pm68 °FPartly sunny.14 mph78%29.50 "HgN/A
6:30 pm68 °FPartly sunny.14 mph78%29.50 "HgN/A
6:00 pm66 °FSprinkles. Partly sunny.7 mph88%29.50 "HgN/A
5:30 pm68 °FSprinkles. Partly sunny.8 mph78%29.50 "Hg4 mi
5:00 pm72 °FPartly sunny.9 mph69%29.53 "HgN/A
4:30 pm70 °FPartly sunny.8 mph73%29.53 "HgN/A
4:00 pm70 °FPartly sunny.6 mph73%29.53 "HgN/A
3:30 pm68 °FPartly sunny.7 mph78%29.56 "HgN/A
3:00 pm68 °FSprinkles. Partly sunny.6 mph78%29.56 "HgN/A
2:30 pm68 °FPartly sunny.5 mph78%29.56 "HgN/A
2:00 pm66 °FPartly sunny.5 mph83%29.59 "HgN/A
1:30 pm64 °FSprinkles. Partly sunny.6 mph88%29.59 "HgN/A
1:00 pm64 °FBroken clouds.5 mph83%29.59 "HgN/A
12:30 pm61 °FBroken clouds.5 mph94%29.59 "HgN/A
12:00 pm59 °FDrizzle. Broken clouds.7 mph94%29.62 "Hg4 mi
11:30 am59 °FDrizzle. Broken clouds.9 mph94%29.62 "Hg2 mi
11:00 am59 °FDrizzle. Broken clouds.9 mph94%29.62 "Hg2 mi
10:30 am59 °FDrizzle. Broken clouds.8 mph94%29.65 "Hg2 mi
10:00 am59 °FDrizzle. Broken clouds.8 mph94%29.65 "Hg2 mi
9:30 am59 °FDrizzle. Broken clouds.8 mph94%29.65 "HgN/A
9:00 am57 °FDrizzle. Broken clouds.7 mph100%29.68 "HgN/A
8:30 am57 °FDrizzle. Broken clouds.8 mph94%29.68 "HgN/A
8:00 am57 °FDrizzle. Broken clouds.8 mph94%29.68 "HgN/A
7:30 am57 °FLight rain. Broken clouds.8 mph94%29.68 "Hg6 mi
7:00 am57 °FLight rain. Broken clouds.6 mph94%29.71 "Hg4 mi
6:30 am57 °FPartly sunny.7 mph94%29.71 "HgN/A
6:00 am55 °FLight rain. Partly sunny.6 mph94%29.71 "HgN/A
5:30 am57 °FLight rain. Partly sunny.5 mph88%29.74 "Hg6 mi
5:00 am57 °FLight rain. Partly cloudy.5 mph88%29.74 "HgN/A
4:30 am57 °FLight rain. Passing clouds.5 mph82%29.74 "HgN/A
4:00 am57 °FPassing clouds.5 mph82%29.74 "HgN/A
3:30 am57 °FPassing clouds.5 mph77%29.77 "HgN/A
3:00 am57 °FPassing clouds.3 mph77%29.77 "HgN/A
2:30 am57 °FPassing clouds.5 mph77%29.77 "HgN/A
2:00 am57 °FPartly cloudy.3 mph77%29.77 "HgN/A
1:30 am57 °FPassing clouds.3 mph77%29.80 "HgN/A
1:00 am57 °FPassing clouds.3 mph77%29.80 "HgN/A
12:30 am57 °FPassing clouds.5 mph72%29.80 "HgN/A
12:00 am57 °FPassing clouds.3 mph77%29.80 "HgN/A
Weather by CustomWeather, © 2019

See weather overview